Weather Service Report


799 
ASUS45 KBOU 241510
RWRCO 

WEATHER ROUNDUP FOR COLORADO
NATIONAL WEATHER SERVICE DENVER/BOULDER CO
800 AM MST SAT FEB 24 2018

NOTE: "FAIR" INDICATES FEW OR NO CLOUDS BELOW 12000 FEET WITH NO
SIGNIFICANT WEATHER AND/OR OBSTRUCTIONS TO VISIBILITY.

COZ001>005-013-030-031-241600-
...NORTHWEST COLORADO...
  
CITY           SKY/WX    TMP DP  RH WIND       PRES   REMARKS
CRAIG          PTSUNNY    1  -2  87 CALM      30.00R                  
HAYDEN         FLURRIES   7   1  76 S5        29.98R WCI  -2          
MEEKER         LGT SNOW  14   9  80 S3        29.98R                  
RANGELY        FAIR      12   5  74 CALM      30.05R                  
RABBIT EARS PA SNOW      -2  -6  84 MISG      29.70R VSB 1/4          
STEAMBOAT SPGS PTSUNNY    9  -1  64 W7        29.94R WCI  -2          
WALDEN         FAIR       9  -6  52 W7        29.82R WCI  -3          
$$

COZ006>008-011-241600-
...WEST CENTRAL VALLEYS...
  
CITY           SKY/WX    TMP DP  RH WIND       PRES   REMARKS
GRAND JUNCTION FAIR      21  14  74 N7        30.07R WCI  12          
MONTROSE       PTSUNNY    9   5  84 SE8       30.08R WCI  -3          
EAGLE          CLOUDY    16   6  65 SW7       29.97R WCI   6          
RIFLE          CLOUDY    18  15  88 W13       30.03R WCI   5          
DELTA          FAIR      23  10  56 SW9       30.06R WCI  13          
NUCLA          FAIR      12   9  85 E6        30.11R WCI   3          
$$

COZ017>023-064>068-241600-
...SOUTHWEST COLORADO...
  
CITY           SKY/WX    TMP DP  RH WIND       PRES   REMARKS
DURANGO        FAIR      15  10  80 CALM      29.99R                  
CORTEZ         FAIR      11   8  88 NE5       30.08R WCI   3          
PAGOSA SPRINGS FAIR      11  10  92 CALM      29.95R                  
TELLURIDE      LGT SNOW   7   4  89 CALM      29.94R                  
WOLF CREEK PAS CLOUDY    -2  -4  92 SW12      29.79S WCI -20          
$$

COZ009-010-012-014-032>034-037-058>063-241600-
...CENTRAL COLORADO...
  
CITY           SKY/WX    TMP DP  RH WIND       PRES   REMARKS
ASPEN          LGT SNOW  12   7  80 N5        29.88R VSB 1   WCI   4  
BUENA VISTA    CLOUDY    16   2  53 W3        29.81R                  
COPPER MTN     CLOUDY     0  -8  71 W26G38    29.61F WCI -25          
BERTHOUD PASS  HVY SNOW -11 -22  58 MISG      29.50S VSB<1/4          
COTTONWOOD PAS LGT SNOW  14   7  73 NW12G20   29.72S VSB 1   WCI   0  
GUNNISON       FAIR      16   5  62 SW12G18   29.90R WCI   3          
GRANBY         FAIR       6  -3  65 SW5       29.86R WCI  -3          
KREMMLING      FAIR      14   0  52 W5        29.91R WCI   6          
LEADVILLE      CLOUDY     3  -4  72 NW7       29.74R HAZE    WCI  -9  
MONARCH PASS   CLOUDY    -2  -8  78 W44G56    29.72R WCI -33          
SALIDA         FAIR      21   3  45 SW21G26   29.90R WCI   6          
SUNLIGHT       SNOW     N/A N/A N/A SW8       29.83R VSB 1/4          
WILKERSON PASS FAIR       1  -8  66 W13       29.65R WCI -16          
$$

COZ069>075-241600-
...SAN LUIS VALLEY/SANGRE DE CRISTO MOUNTAINS...
  
CITY           SKY/WX    TMP DP  RH WIND       PRES   REMARKS
ALAMOSA        FAIR      19   1  45 W9        29.85R WCI   8          
DEL NORTE      FAIR      15  -1  50 W14       29.85R WCI   0          
LA VETA PASS   FAIR       9  -2  61 W10G21    29.84R WCI  -6          
SAGUACHE       FAIR      18   1  49 NW15G22   29.86R WCI   3          
$$

COZ035-036-038>040-241600-
...NORTHERN COLORADO FRONT RANGE...
  
CITY           SKY/WX    TMP DP  RH WIND       PRES   REMARKS
DENVER INTL AP FAIR      24  12  60 W15       29.78F WCI  11          
AURORA         MOSUNNY   23  12  61 W18       29.78F WCI   9          
FRONT RANGE AP MOSUNNY   25  16  68 W12G20    29.79S WCI  14          
ERIE MUNI ARPT FAIR      25   6  44 W9        29.86S WCI  15          
BOULDER MUN AP FAIR      27   5  39 S5        29.79F WCI  21          
CENTENNIAL     FAIR      22  18  85 W9        29.78S WCI  12          
BROOMFIELD     MOSUNNY   21   7  53 W23G29    29.79S WCI   5          
FORT COLLINS   FAIR      18  16  92 S5        29.79F WCI  11          
LONGMONT       FAIR      19  16  88 W5        29.81F WCI  12          
$$

COZ041-046-047-076>085-087-088-241600-
...PIKES PEAK/PALMER DIVIDE AND SOUTHERN FOOTHILLS...
  
CITY           SKY/WX    TMP DP  RH WIND       PRES   REMARKS
COLO. SPRINGS  FAIR      22  20  92 NW5       29.78S WCI  16          
A. F. ACADEMY  FAIR      22  13  68 NE6       29.75R WCI  14          
SCHRIEVER AFB  NOT AVBL                                               
CHEYENNE MTN   FAIR      19  19  98 CALM      29.70R                  
ELLICOTT         N/A    N/A N/A N/A W5        29.76R                  
FALCON         FAIR      22  16  79 MISG      29.76S                  
FORT CARSON    FAIR      22  19  85 S5        29.77F WCI  16          
LIMON          FAIR      22  19  89 N5        29.78S WCI  16          
MONUMENT HILL  FAIR      19  18  93 CALM      29.76R FOG              
CANON CITY     SUNNY     30  16  55 W9        29.81R WCI  22          
WALSENBURG     NOT AVBL                                               
TRINIDAD       FAIR      23  18  81 W9        29.81R WCI  13          
$$

COZ042>045-048>051-090-091-241600-
...NORTHEAST COLORADO...
  
CITY           SKY/WX    TMP DP  RH WIND       PRES   REMARKS
GREELEY ARPT   FAIR      16  14  92 NW5       29.81F FOG     WCI   9  
AKRON          FAIR      23  22  96 W14       29.78S FOG     WCI  11  
BURLINGTON     CLOUDY    27  26  96 SW10      29.79S WCI  17          
WRAY           LGT SNOW  27  27 100 W3        29.81S                  
YUMA           NOT AVBL                                               
STERLING       FAIR      27  25  93 W8        29.80S WCI  18          
HOLYOKE        FAIR      27  23  86 SW6       29.81S WCI  20          
FORT MORGAN    FAIR      25  23  93 W9        29.81S WCI  15          
$$

COZ086-089-092>099-241600-
...SOUTHEAST COLORADO...
  
CITY           SKY/WX    TMP DP  RH WIND       PRES   REMARKS
PUEBLO         FAIR      26  25  96 S5        29.83S FOG     WCI  20  
LA JUNTA       PTSUNNY   29  25  85 NW9       29.84F WCI  20          
LAMAR          CLOUDY    27  25  92 W6        29.83R WCI  20          
SPRINGFIELD      N/A     26  26 100 SW3       29.80F                  
$$
  


801 
ASUS45 KBOU 241510
RWRCO 

WEATHER ROUNDUP FOR COLORADO
NATIONAL WEATHER SERVICE PUEBLO CO
800 AM MST SAT FEB 24 2018

NOTE: "FAIR" INDICATES FEW OR NO CLOUDS BELOW 12000 FEET WITH NO
SIGNIFICANT WEATHER AND/OR OBSTRUCTIONS TO VISIBILITY.

COZ001>005-013-030-031-241600-
...NORTHWEST COLORADO...
  
CITY           SKY/WX    TMP DP  RH WIND       PRES   REMARKS
CRAIG          PTSUNNY    1  -2  87 CALM      30.00R                  
HAYDEN         FLURRIES   7   1  76 S5        29.98R WCI  -2          
MEEKER         LGT SNOW  14   9  80 S3        29.98R                  
RABBIT EARS PA NOT AVBL                                               
STEAMBOAT SPGS PTSUNNY    9  -1  64 W7        29.94R WCI  -2          
WALDEN         FAIR       9  -6  52 W7        29.82R WCI  -3          
$$

COZ006>008-011-241600-
...WEST CENTRAL VALLEYS...
  
CITY           SKY/WX    TMP DP  RH WIND       PRES   REMARKS
GRAND JUNCTION MOSUNNY   21  14  74 N7        30.07R WCI  12          
MONTROSE       PTSUNNY    9   5  84 SE8       30.08R WCI  -3          
EAGLE          CLOUDY    16   6  65 SW7       29.97R WCI   6          
RIFLE          CLOUDY    18  15  88 W13       30.03R WCI   5          
DELTA          NOT AVBL                                               
NUCLA          FAIR      12   9  85 E6        30.11R WCI   3          
$$

COZ017>023-064>068-241600-
...SOUTHWEST COLORADO...
  
CITY           SKY/WX    TMP DP  RH WIND       PRES   REMARKS
DURANGO        SUNNY     15  10  80 CALM      29.99R                  
CORTEZ         SUNNY     11   8  88 NE5       30.08R WCI   3          
PAGOSA SPRINGS FAIR      11  10  92 CALM      29.95R                  
TELLURIDE      LGT SNOW   7   4  89 CALM      29.94R                  
WOLF CREEK PAS CLOUDY    -2  -4  92 SW12      29.79S WCI -20          
$$

COZ009-010-012-014-032>034-037-058>063-241600-
...CENTRAL COLORADO...
  
CITY           SKY/WX    TMP DP  RH WIND       PRES   REMARKS
ASPEN          LGT SNOW  12   7  80 N5        29.88R VSB 1   WCI   4  
BUENA VISTA    CLOUDY    16   2  53 W3        29.81R                  
COPPER MTN     CLOUDY     0  -8  71 W26G38    29.61F WCI -25          
BERTHOUD PASS  HVY SNOW -11 -22  58 MISG      29.50S VSB<1/4          
COTTONWOOD PAS LGT SNOW  14   7  73 NW12G20   29.72S VSB 1   WCI   0  
GUNNISON       MOSUNNY   16   5  62 SW12G18   29.90R WCI   3          
KREMMLING      MOSUNNY   14   0  52 W5        29.91R WCI   6          
LEADVILLE      CLOUDY     3  -4  72 NW7       29.74R HAZE    WCI  -9  
MONARCH PASS   CLOUDY    -2  -8  78 W44G56    29.72R WCI -33          
SALIDA         FAIR      21   3  45 SW21G26   29.90R WCI   6          
SUNLIGHT       SNOW     N/A N/A N/A SW8       29.83R VSB 1/4          
WILKERSON PASS SUNNY      1  -8  66 W13       29.65R WCI -16          
$$

COZ069>075-241600-
...SAN LUIS VALLEY/SANGRE DE CRISTO MOUNTAINS...
  
CITY           SKY/WX    TMP DP  RH WIND       PRES   REMARKS
ALAMOSA        SUNNY     19   1  45 W9        29.85R WCI   8          
DEL NORTE      FAIR      15  -1  50 W14       29.85R WCI   0          
LA VETA PASS   MOSUNNY    9  -2  61 W10G21    29.84R WCI  -6          
SAGUACHE       SUNNY     18   1  49 NW15G22   29.86R WCI   3          
$$

COZ035-036-038>040-241600-
...NORTHERN COLORADO FRONT RANGE...
  
CITY           SKY/WX    TMP DP  RH WIND       PRES   REMARKS
DENVER INTL AP MOSUNNY   24  12  60 W15       29.78F WCI  11          
DMNS CITY PARK NOT AVBL                                               
AURORA         MOSUNNY   23  12  61 W18       29.78F WCI   9          
FRONT RANGE AP MOSUNNY   25  16  68 W12G20    29.79S WCI  14          
ERIE MUNI ARPT FAIR      25   6  44 W9        29.86S WCI  15          
BOULDER MUN AP FAIR      27   5  39 S5        29.79F WCI  21          
CENTENNIAL     MOSUNNY   22  18  85 W9        29.78S WCI  12          
BROOMFIELD     MOSUNNY   21   7  53 W23G29    29.79S WCI   5          
LOVELAND       SUNNY     18  16  92 S5        29.79F WCI  11          
LONGMONT       FAIR      19  16  88 W5        29.81F WCI  12          
$$

COZ041-046-047-076>085-087-088-241600-
...PIKES PEAK/PALMER DIVIDE AND SOUTHERN FOOTHILLS...
  
CITY           SKY/WX    TMP DP  RH WIND       PRES   REMARKS
COLO. SPRINGS  MOSUNNY   22  20  92 NW5       29.78S WCI  16          
A. F. ACADEMY  SUNNY     22  13  68 NE6       29.75R WCI  14          
SCHRIEVER AFB  NOT AVBL                                               
CHEYENNE MTN   NOT AVBL                                               
ELLICOTT         N/A    N/A N/A N/A W5        29.76R                  
FALCON         FAIR      22  16  79 MISG      29.76S                  
FORT CARSON    SUNNY     22  19  85 S5        29.77F WCI  16          
LIMON          MOSUNNY   22  19  89 N5        29.78S WCI  16          
MONUMENT HILL  SUNNY     19  18  93 CALM      29.76R FOG              
CANON CITY     SUNNY     30  16  55 W9        29.81R WCI  22          
WALSENBURG     NOT AVBL                                               
TRINIDAD       SUNNY     23  18  81 W9        29.81R WCI  13          
$$

COZ042>045-048>051-090-091-241600-
...NORTHEAST COLORADO...
  
CITY           SKY/WX    TMP DP  RH WIND       PRES   REMARKS
GREELEY ARPT   MOSUNNY   16  14  92 NW5       29.81F FOG     WCI   9  
AKRON          PTSUNNY   23  22  96 W14       29.78S FOG     WCI  11  
BURLINGTON     CLOUDY    27  26  96 SW10      29.79S WCI  17          
WRAY           LGT SNOW  27  27 100 W3        29.81S                  
YUMA           NOT AVBL                                               
STERLING       FAIR      27  25  93 W8        29.80S WCI  18          
HOLYOKE        FAIR      27  23  86 SW6       29.81S WCI  20          
FORT MORGAN    FAIR      25  23  93 W9        29.81S WCI  15          
$$

COZ086-089-092>099-241600-
...SOUTHEAST COLORADO...
  
CITY           SKY/WX    TMP DP  RH WIND       PRES   REMARKS
PUEBLO         MOSUNNY   26  25  96 S5        29.83S FOG     WCI  20  
LA JUNTA       PTSUNNY   29  25  85 NW9       29.84F WCI  20          
LAMAR          CLOUDY    27  25  92 W6        29.83R WCI  20          
SPRINGFIELD      N/A     26  26 100 SW3       29.80F                  
$$

  

Return to Home page


Western Regional Climate Center, wrcc@dri.edu